Satellite: NOAA-11 Catalog number: 19531 Epoch time: 13302.29294772 Element set: 570 Inclination: 098.7031 deg RA of node: 022.1102 deg Eccentricity: 0.0010568 Arg of perigee: 234.1443 deg Mean anomaly: 125.8750 deg Mean motion: 14.15034047 rev/day Decay rate: 1.03e-06 rev/day^2 Epoch rev: 29508 Checksum: 256
Satellite: NOAA-12 Catalog number: 21263 Epoch time: 13302.46221385 Element set: 23 Inclination: 098.6869 deg RA of node: 326.7207 deg Eccentricity: 0.0014074 Arg of perigee: 185.1776 deg Mean anomaly: 306.4788 deg Mean motion: 14.25593421 rev/day Decay rate: 1.35e-06 rev/day^2 Epoch rev: 16768 Checksum: 305
Satellite: MET-3/5 Catalog number: 21655 Epoch time: 13302.78823962 Element set: 819 Inclination: 082.5549 deg RA of node: 159.2093 deg Eccentricity: 0.0013924 Arg of perigee: 150.0103 deg Mean anomaly: 210.1820 deg Mean motion: 13.17045746 rev/day Decay rate: 4.86e-06 rev/day^2 Epoch rev: 6765 Checksum: 294
Satellite: MET-2/21 Catalog number: 22782 Epoch time: 13302.17728067 Element set: 881 Inclination: 082.5500 deg RA of node: 356.6054 deg Eccentricity: 0.0022699 Arg of perigee: 190.2085 deg Mean anomaly: 192.6019 deg Mean motion: 13.83714951 rev/day Decay rate: -4.0e-08 rev/day^2 Epoch rev: 1817 Checksum: 296
Satellite: OKEAN-4 Catalog number: 23317 Epoch time: 13302.17554208 Element set: 361 Inclination: 082.5371 deg RA of node: 284.3613 deg Eccentricity: 0.0022445 Arg of perigee: 140.7344 deg Mean anomaly: 223.9735 deg Mean motion: 14.84707351 rev/day Decay rate: 2.358e-05 rev/day^2 Epoch rev: 2882 Checksum: 282
Satellite: NOAA-14 Catalog number: 23455 Epoch time: 13302.46888228 Element set: 501 Inclination: 098.7967 deg RA of node: 024.8285 deg Eccentricity: 0.0008857 Arg of perigee: 341.5589 deg Mean anomaly: 150.4289 deg Mean motion: 14.13926044 rev/day Decay rate: 7.1e-07 rev/day^2 Epoch rev: 97134 Checksum: 329
Satellite: NOAA-15 Catalog number: 25338 Epoch time: 13302.46327994 Element set: 928 Inclination: 098.7362 deg RA of node: 292.0207 deg Eccentricity: 0.0011801 Arg of perigee: 098.5253 deg Mean anomaly: 054.6362 deg Mean motion: 14.25281668 rev/day Decay rate: 3.03e-06 rev/day^2 Epoch rev: 80397 Checksum: 311
Satellite: RESURS Catalog number: 25394 Epoch time: 13302.54912340 Element set: 504 Inclination: 098.3807 deg RA of node: 272.0633 deg Eccentricity: 0.0001342 Arg of perigee: 166.9727 deg Mean anomaly: 330.0775 deg Mean motion: 14.24341812 rev/day Decay rate: 6.4e-07 rev/day^2 Epoch rev: 79548 Checksum: 283
Satellite: FENGYUN1 Catalog number: 25730 Epoch time: 13302.17834657 Element set: 997 Inclination: 098.8911 deg RA of node: 260.1448 deg Eccentricity: 0.0028315 Arg of perigee: 034.9839 deg Mean anomaly: 095.3302 deg Mean motion: 14.10792719 rev/day Decay rate: 3.661e-05 rev/day^2 Epoch rev: 74493 Checksum: 323
Satellite: OKEAN-0 Catalog number: 25860 Epoch time: 13301.98192818 Element set: 83 Inclination: 098.0097 deg RA of node: 262.7773 deg Eccentricity: 0.0002125 Arg of perigee: 096.8146 deg Mean anomaly: 303.4465 deg Mean motion: 14.74749183 rev/day Decay rate: 6.18e-06 rev/day^2 Epoch rev: 76807 Checksum: 323
Satellite: NOAA-16 Catalog number: 26536 Epoch time: 13302.47014623 Element set: 418 Inclination: 099.0256 deg RA of node: 356.4531 deg Eccentricity: 0.0011547 Arg of perigee: 116.7240 deg Mean anomaly: 346.1858 deg Mean motion: 14.12934105 rev/day Decay rate: 1.86e-06 rev/day^2 Epoch rev: 67553 Checksum: 291
Satellite: NOAA-17 Catalog number: 27453 Epoch time: 13302.51503885 Element set: 321 Inclination: 098.3114 deg RA of node: 309.4690 deg Eccentricity: 0.0012803 Arg of perigee: 129.3775 deg Mean anomaly: 022.0544 deg Mean motion: 14.24632666 rev/day Decay rate: 2.82e-06 rev/day^2 Epoch rev: 58984 Checksum: 297
Satellite: NOAA-18 Catalog number: 28654 Epoch time: 13302.46172610 Element set: 815 Inclination: 099.1187 deg RA of node: 272.7292 deg Eccentricity: 0.0014261 Arg of perigee: 188.0287 deg Mean anomaly: 331.0459 deg Mean motion: 14.11882770 rev/day Decay rate: 1.81e-06 rev/day^2 Epoch rev: 43500 Checksum: 294
Satellite: NOAA-19 Catalog number: 33591 Epoch time: 13302.43609863 Element set: 985 Inclination: 098.9177 deg RA of node: 243.5178 deg Eccentricity: 0.0014885 Arg of perigee: 053.6896 deg Mean anomaly: 084.7656 deg Mean motion: 14.11571032 rev/day Decay rate: 2.51e-06 rev/day^2 Epoch rev: 24343 Checksum: 330
/EX SB KEPS @ AMSAT $ORB13302.M Orbital Elements 13302.MISC
HR AMSAT ORBITAL ELEMENTS FOR MANNED AND MISCELLANEOUS SATELLITES FROM WA5QGD FORT WORTH,TX October 29, 2013 BID: ORB13302.M TO ALL RADIO AMATEURS BT
Satellite: HUBBLE Catalog number: 20580 Epoch time: 13302.51008569 Element set: 363 Inclination: 028.4693 deg RA of node: 111.9923 deg Eccentricity: 0.0003279 Arg of perigee: 348.8998 deg Mean anomaly: 049.7084 deg Mean motion: 15.04077861 rev/day Decay rate: 3.937e-05 rev/day^2 Epoch rev: 8993 Checksum: 328
Satellite: ISS Catalog number: 25544 Epoch time: 13302.87474537 Element set: 914 Inclination: 051.6506 deg RA of node: 161.0128 deg Eccentricity: 0.0001750 Arg of perigee: 106.0158 deg Mean anomaly: 072.5389 deg Mean motion: 15.49644471 rev/day Decay rate: 8.158e-05 rev/day^2 Epoch rev: 85559 Checksum: 305
Satellite: CO-58 Catalog number: 28895 Epoch time: 13302.09263971 Element set: 608 Inclination: 097.8521 deg RA of node: 150.7767 deg Eccentricity: 0.0017868 Arg of perigee: 024.2647 deg Mean anomaly: 335.9392 deg Mean motion: 14.61288850 rev/day Decay rate: 1.535e-05 rev/day^2 Epoch rev: 42649 Checksum: 350
Satellite: FALCON Catalog number: 30776 Epoch time: 13302.51493573 Element set: 725 Inclination: 035.4294 deg RA of node: 097.0608 deg Eccentricity: 0.0001270 Arg of perigee: 006.2119 deg Mean anomaly: 042.4116 deg Mean motion: 15.11874306 rev/day Decay rate: 1.1457e-04 rev/day^2 Epoch rev: 36575 Checksum: 274
Satellite: MAST Catalog number: 31126 Epoch time: 13302.49692854 Element set: 888 Inclination: 097.8920 deg RA of node: 290.8379 deg Eccentricity: 0.0092553 Arg of perigee: 354.7743 deg Mean anomaly: 128.8827 deg Mean motion: 14.54735011 rev/day Decay rate: 1.728e-05 rev/day^2 Epoch rev: 34684 Checksum: 341
Satellite: CAPE1 Catalog number: 31130 Epoch time: 13301.93251982 Element set: 889 Inclination: 097.9108 deg RA of node: 286.7274 deg Eccentricity: 0.0100347 Arg of perigee: 013.0422 deg Mean anomaly: 347.3335 deg Mean motion: 14.53696311 rev/day Decay rate: 2.504e-05 rev/day^2 Epoch rev: 34620 Checksum: 279
Satellite: COMPASS Catalog number: 32787 Epoch time: 13302.15669399 Element set: 766 Inclination: 097.7373 deg RA of node: 357.1722 deg Eccentricity: 0.0013798 Arg of perigee: 218.4280 deg Mean anomaly: 141.5954 deg Mean motion: 14.86041635 rev/day Decay rate: 5.655e-05 rev/day^2 Epoch rev: 29785 Checksum: 346
Satellite: AAUSAT2 Catalog number: 32788 Epoch time: 13302.66014568 Element set: 750 Inclination: 097.7383 deg RA of node: 358.4048 deg Eccentricity: 0.0013321 Arg of perigee: 215.9755 deg Mean anomaly: 144.0565 deg Mean motion: 14.86562517 rev/day Decay rate: 5.151e-05 rev/day^2 Epoch rev: 29797 Checksum: 324
Satellite: DO-64 Catalog number: 32789 Epoch time: 13302.51388804 Element set: 784 Inclination: 097.7546 deg RA of node: 002.8805 deg Eccentricity: 0.0013025 Arg of perigee: 207.1360 deg Mean anomaly: 262.1050 deg Mean motion: 14.89613635 rev/day Decay rate: 9.509e-05 rev/day^2 Epoch rev: 29811 Checksum: 310
Satellite: CO-66 Catalog number: 32791 Epoch time: 13302.14549877 Element set: 741 Inclination: 097.7372 deg RA of node: 356.3391 deg Eccentricity: 0.0014271 Arg of perigee: 220.6016 deg Mean anomaly: 191.7233 deg Mean motion: 14.85074948 rev/day Decay rate: 4.526e-05 rev/day^2 Epoch rev: 29775 Checksum: 329
Satellite: RS-30 Catalog number: 32953 Epoch time: 13302.63552686 Element set: 334 Inclination: 082.5036 deg RA of node: 344.5861 deg Eccentricity: 0.0017496 Arg of perigee: 301.1792 deg Mean anomaly: 058.7573 deg Mean motion: 12.43038408 rev/day Decay rate: 1.0e-07 rev/day^2 Epoch rev: 24661 Checksum: 289
Satellite: METEOR-M Catalog number: 35865 Epoch time: 13302.70046679 Element set: 937 Inclination: 098.5861 deg RA of node: 351.7067 deg Eccentricity: 0.0003318 Arg of perigee: 051.8566 deg Mean anomaly: 308.2905 deg Mean motion: 14.21895731 rev/day Decay rate: 6.0e-08 rev/day^2 Epoch rev: 21358 Checksum: 311
Satellite: RS-38 Catalog number: 35869 Epoch time: 13302.71015867 Element set: 892 Inclination: 098.5802 deg RA of node: 351.5903 deg Eccentricity: 0.0005393 Arg of perigee: 049.4678 deg Mean anomaly: 310.6969 deg Mean motion: 14.22151775 rev/day Decay rate: 6.9e-07 rev/day^2 Epoch rev: 21361 Checksum: 329
Satellite: JUGNU Catalog number: 37839 Epoch time: 13302.14470865 Element set: 491 Inclination: 019.9605 deg RA of node: 215.0922 deg Eccentricity: 0.0018997 Arg of perigee: 319.2235 deg Mean anomaly: 185.6821 deg Mean motion: 14.12194384 rev/day Decay rate: 5.73e-06 rev/day^2 Epoch rev: 10585 Checksum: 309
Satellite: SRMSAT Catalog number: 37841 Epoch time: 13302.17363595 Element set: 490 Inclination: 019.9713 deg RA of node: 229.6267 deg Eccentricity: 0.0011758 Arg of perigee: 267.8842 deg Mean anomaly: 231.8322 deg Mean motion: 14.10258125 rev/day Decay rate: 5.10e-06 rev/day^2 Epoch rev: 10571 Checksum: 286
Satellite: RAX-2 Catalog number: 37853 Epoch time: 13301.98942308 Element set: 630 Inclination: 101.6980 deg RA of node: 217.6428 deg Eccentricity: 0.0231365 Arg of perigee: 003.5863 deg Mean anomaly: 056.7998 deg Mean motion: 14.84813618 rev/day Decay rate: 1.4683e-04 rev/day^2 Epoch rev: 10829 Checksum: 326
